When you browse on this site, cookies collect data to enhance your experience and personalize the content and advertising you see.
Visit our Privacy Policy to learn more. By continuing to use the site, you agree to this use of cookies and data.
  • In Germany
  • List of Countries
  • For 7 days
  • Water Temperature
  • Satellite Maps
  • Weather Map
  • Weather Widgets
  • user-avatar
    Login

    Hourly Weather Kitzbuhel

    Today, 18 December, Tuesday

    Time Temperature Precipitation Wind Pressure Humidity
    00:00 -2°C° 0.3 mm 2 mps 682 mmHg 94%
    01:00 0°C° 0 mm 1 mps 682 mmHg 95%
    02:00 -1°C° 0.1 mm 1 mps 682 mmHg 94%
    03:00 -1°C° 0.1 mm 1 mps 682 mmHg 93%
    04:00 -2°C° 0.1 mm 1 mps 682 mmHg 92%
    05:00 -2°C° 0 mm 1 mps 682 mmHg 90%
    06:00 -3°C° 0 mm 1 mps 682 mmHg 89%
    07:00 -3°C° 0 mm 1 mps 682 mmHg 88%
    08:00 -2°C° 0 mm 1 mps 682 mmHg 85%
    09:00 -1°C° 0 mm 1 mps 682 mmHg 83%
    10:00 0°C° 0 mm 1 mps 682 mmHg 80%
    11:00 +1°C° 0 mm 1 mps 682 mmHg 78%
    12:00 +2°C° 0 mm 1 mps 681 mmHg 76%
    13:00 +3°C° 0 mm 1 mps 681 mmHg 74%
    14:00 +2°C° 0 mm 1 mps 681 mmHg 77%
    15:00 +1°C° 0 mm 1 mps 680 mmHg 79%
    16:00 0°C° 0 mm 1 mps 680 mmHg 82%
    17:00 -1°C° 0 mm 1 mps 680 mmHg 79%
    18:00 -4°C° 0 mm 2 mps 680 mmHg 76%
    19:00 -4°C° 0 mm 2 mps 679 mmHg 73%
    20:00 -4°C° 0 mm 2 mps 679 mmHg 70%
    21:00 -4°C° 0 mm 2 mps 679 mmHg 68%
    22:00 -4°C° 0 mm 2 mps 679 mmHg 65%
    23:00 -4°C° 0 mm 2 mps 679 mmHg 64%

    Tomorrow, 19 December, Wednesday

    Time Temperature Precipitation Wind Pressure Humidity
    00:00 -4°C° 0 mm 2 mps 678 mmHg 62%
    01:00 -4°C° 0 mm 2 mps 678 mmHg 61%
    02:00 -4°C° 0 mm 2 mps 678 mmHg 61%
    03:00 -4°C° 0 mm 2 mps 678 mmHg 60%
    04:00 -3°C° 0 mm 2 mps 677 mmHg 60%
    05:00 -3°C° 0 mm 2 mps 677 mmHg 60%
    06:00 -3°C° 0 mm 2 mps 677 mmHg 61%
    07:00 -3°C° 0 mm 2 mps 677 mmHg 61%
    08:00 -2°C° 0 mm 2 mps 678 mmHg 63%
    09:00 -1°C° 0 mm 2 mps 678 mmHg 65%
    10:00 +2°C° 0 mm 1 mps 678 mmHg 66%
    11:00 +3°C° 0 mm 1 mps 678 mmHg 69%
    12:00 +4°C° 0 mm 1 mps 677 mmHg 71%
    13:00 +5°C° 0 mm 1 mps 677 mmHg 73%
    14:00 +4°C° 0 mm 1 mps 677 mmHg 74%
    15:00 +3°C° 0 mm 1 mps 676 mmHg 74%
    16:00 +2°C° 0 mm 1 mps 676 mmHg 75%
    17:00 +1°C° 0 mm 1 mps 676 mmHg 75%
    18:00 -2°C° 0 mm 2 mps 675 mmHg 75%
    19:00 -3°C° 0 mm 2 mps 675 mmHg 75%
    20:00 -3°C° 0 mm 2 mps 675 mmHg 76%
    21:00 -3°C° 0 mm 2 mps 675 mmHg 77%
    22:00 -3°C° 0 mm 2 mps 675 mmHg 77%
    23:00 -3°C° 0 mm 2 mps 675 mmHg 79%

    Day after tomorrow, 20 December, Thursday

    Time Temperature Precipitation Wind Pressure Humidity
    00:00 -3°C° 0 mm 2 mps 675 mmHg 80%
    01:00 -1°C° 0 mm 1 mps 676 mmHg 82%
    02:00 0°C° 0.3 mm 1 mps 676 mmHg 84%
    03:00 0°C° 0.3 mm 1 mps 676 mmHg 86%
    04:00 0°C° 0.3 mm 1 mps 676 mmHg 88%
    05:00 0°C° 0.4 mm 1 mps 676 mmHg 89%
    06:00 +1°C° 0.4 mm 1 mps 676 mmHg 90%
    07:00 +1°C° 0.4 mm 1 mps 676 mmHg 91%
    08:00 +1°C° 0.5 mm 1 mps 677 mmHg 92%
    09:00 +2°C° 0.5 mm 1 mps 677 mmHg 92%
    10:00 +2°C° 0.5 mm 1 mps 677 mmHg 92%
    11:00 +3°C° 0.3 mm 1 mps 677 mmHg 92%
    12:00 +3°C° 0.3 mm 1 mps 677 mmHg 92%
    13:00 +4°C° 0.3 mm 1 mps 677 mmHg 92%
    14:00 +3°C° 0.2 mm 1 mps 677 mmHg 92%
    15:00 +3°C° 0.2 mm 1 mps 677 mmHg 92%
    16:00 +1°C° 0.2 mm 2 mps 678 mmHg 92%
    17:00 -1°C° 0.1 mm 2 mps 678 mmHg 91%
    18:00 +1°C° 0.1 mm 1 mps 678 mmHg 90%
    19:00 0°C° 0.1 mm 1 mps 678 mmHg 89%
    20:00 0°C° 0.1 mm 1 mps 679 mmHg 88%
    21:00 0°C° 0.1 mm 1 mps 679 mmHg 87%
    22:00 -2°C° 0.1 mm 2 mps 680 mmHg 86%
    23:00 -2°C° 0 mm 2 mps 680 mmHg 84%

    21 December, Friday

    Time Temperature Precipitation Wind Pressure Humidity
    00:00 -3°C° 0 mm 2 mps 680 mmHg 82%
    01:00 -3°C° 0 mm 2 mps 680 mmHg 81%
    02:00 -3°C° 0.1 mm 2 mps 680 mmHg 80%
    03:00 -3°C° 0.1 mm 2 mps 679 mmHg 79%
    04:00 -3°C° 0.1 mm 2 mps 679 mmHg 78%
    05:00 -3°C° 0 mm 2 mps 679 mmHg 77%
    06:00 -4°C° 0 mm 2 mps 679 mmHg 76%
    07:00 -4°C° 0 mm 2 mps 679 mmHg 74%
    08:00 -2°C° 0 mm 2 mps 679 mmHg 73%
    09:00 -1°C° 0 mm 2 mps 679 mmHg 72%
    10:00 +1°C° 0 mm 2 mps 679 mmHg 71%
    11:00 +2°C° 0 mm 2 mps 678 mmHg 72%
    12:00 +3°C° 0 mm 2 mps 678 mmHg 73%
    13:00 +4°C° 0 mm 2 mps 677 mmHg 74%
    14:00 +3°C° 0.1 mm 2 mps 677 mmHg 75%
    15:00 +3°C° 0.1 mm 2 mps 677 mmHg 76%
    16:00 +3°C° 0.1 mm 2 mps 677 mmHg 77%
    17:00 +3°C° 0.4 mm 2 mps 677 mmHg 77%
    18:00 +2°C° 0.4 mm 2 mps 677 mmHg 77%
    19:00 +2°C° 0.4 mm 2 mps 677 mmHg 77%
    20:00 +3°C° 0.4 mm 2 mps 677 mmHg 77%
    21:00 +3°C° 0.4 mm 2 mps 677 mmHg 77%
    22:00 +3°C° 0.4 mm 2 mps 677 mmHg 77%
    23:00 +3°C° 0.7 mm 2 mps 677 mmHg 80%

    22 December, Saturday

    Time Temperature Precipitation Wind Pressure Humidity
    00:00 +4°C° 0.7 mm 2 mps 677 mmHg 82%
    01:00 +4°C° 0.7 mm 2 mps 677 mmHg 85%
    02:00 +4°C° 0.2 mm 2 mps 678 mmHg 86%
    03:00 +4°C° 0.2 mm 2 mps 678 mmHg 87%
    04:00 +4°C° 0.2 mm 2 mps 678 mmHg 89%
    05:00 +4°C° 0.1 mm 2 mps 678 mmHg 89%
    06:00 +4°C° 0.1 mm 2 mps 678 mmHg 90%
    07:00 +3°C° 0.1 mm 2 mps 678 mmHg 91%
    08:00 +4°C° 0 mm 2 mps 678 mmHg 91%
    09:00 +4°C° 0 mm 2 mps 678 mmHg 90%
    10:00 +5°C° 0 mm 2 mps 678 mmHg 89%
    11:00 +6°C° 0 mm 2 mps 678 mmHg 89%
    12:00 +6°C° 0 mm 2 mps 677 mmHg 89%
    13:00 +7°C° 0 mm 2 mps 677 mmHg 90%
    14:00 +6°C° 0.2 mm 2 mps 677 mmHg 88%
    15:00 +6°C° 0.2 mm 2 mps 677 mmHg 87%
    16:00 +6°C° 0.2 mm 2 mps 677 mmHg 86%
    17:00 +5°C° 0 mm 2 mps 677 mmHg 85%
    18:00 +5°C° 0 mm 2 mps 677 mmHg 84%
    19:00 +4°C° 0 mm 2 mps 678 mmHg 83%
    20:00 +4°C° 0.2 mm 2 mps 678 mmHg 85%
    21:00 +4°C° 0.2 mm 2 mps 678 mmHg 87%
    22:00 +4°C° 0.2 mm 2 mps 679 mmHg 88%
    23:00 +4°C° 0.5 mm 2 mps 679 mmHg 89%

    23 December, Sunday

    Time Temperature Precipitation Wind Pressure Humidity
    00:00 +4°C° 0.5 mm 2 mps 679 mmHg 89%
    01:00 +5°C° 0.5 mm 1 mps 679 mmHg 90%
    02:00 +5°C° 0.6 mm 1 mps 680 mmHg 91%
    03:00 +5°C° 0.6 mm 1 mps 680 mmHg 92%
    04:00 +4°C° 0.6 mm 2 mps 680 mmHg 92%
    05:00 +5°C° 0.6 mm 1 mps 680 mmHg 93%
    06:00 +5°C° 0.6 mm 1 mps 680 mmHg 94%
    07:00 +5°C° 0.6 mm 1 mps 680 mmHg 94%
    08:00 +5°C° 0.8 mm 1 mps 681 mmHg 94%
    09:00 +5°C° 0.8 mm 1 mps 681 mmHg 94%
    10:00 +4°C° 0.8 mm 2 mps 681 mmHg 94%
    11:00 +5°C° 0.4 mm 2 mps 681 mmHg 94%
    12:00 +5°C° 0.4 mm 2 mps 681 mmHg 93%
    13:00 +5°C° 0.4 mm 2 mps 681 mmHg 92%
    14:00 +5°C° 0.1 mm 2 mps 681 mmHg 92%
    15:00 +5°C° 0.1 mm 1 mps 681 mmHg 92%
    16:00 +5°C° 0.1 mm 1 mps 681 mmHg 92%
    17:00 +5°C° 0.2 mm 1 mps 682 mmHg 92%
    18:00 +5°C° 0.2 mm 1 mps 682 mmHg 91%
    19:00 +4°C° 0.2 mm 1 mps 682 mmHg 91%
    20:00 +4°C° 0.2 mm 1 mps 682 mmHg 91%
    21:00 +4°C° 0.2 mm 1 mps 683 mmHg 91%
    22:00 +4°C° 0.2 mm 1 mps 683 mmHg 90%
    23:00 +5°C° 0.2 mm 1 mps 683 mmHg 90%
    Show more